This demonstration page uses our WeatherBlox Daily Observations layout. Learn more.

Left ArrowRight Arrow

Hourly Observations for February 1, 2020

Temp ( °F °C ) Dew Point ( °F °C ) Humidity (%) Winds ( mph kmh ) Pressure ( in mb ) Visibility ( mi km ) Precip ( " mm )
12:53 am 00:53 Clear 49 9.4 35 1.7 59 59 SW 24 39 29.72 1006 10 16 0.00 0.00
1:53 am 01:53 Clear 48 8.9 34 1.1 58 58 SW 23 37 29.69 1005 10 16 0.00 0.00
2:53 am 02:53 Clear 47 8.3 34 1.1 61 61 SW 24 39 29.69 1005 10 16 0.00 0.00
3:53 am 03:53 Clear 46 7.8 33 0.6 61 61 SW 22 35 29.67 1005 10 16 0.00 0.00
4:53 am 04:53 Clear 46 7.8 32 0 58 58 WSW 23 37 29.66 1005 10 16 0.00 0.00
5:53 am 05:53 Clear 44 6.7 31 -0.6 60 60 WSW 22 35 29.65 1004 10 16 0.00 0.00
6:53 am 06:53 Clear 45 7.2 29 -1.7 54 54 WSW 24 39 29.63 1004 10 16 0.00 0.00
7:53 am 07:53 Sunny 43 6.1 28 -2.2 56 56 WSW 14 22 29.63 1003 10 16 0.00 0.00
8:53 am 08:53 Sunny 53 11.7 24 -4.4 32 32 SW 24 39 29.59 1002 10 16 0.00 0.00
9:53 am 09:53 Sunny 55 12.8 24 -4.4 30 30 SW 38 61 29.56 1001 10 16 0.00 0.00
10:53 am 10:53 Sunny 56 13.3 23 -5 28 28 SW 31 50 29.56 1001 10 16 0.00 0.00
11:53 am 11:53 Sunny 57 13.9 25 -3.9 29 29 SW 22 35 29.54 1000 10 16 0.00 0.00
12:53 pm 12:53 Sunny 59 15 28 -2.2 31 31 WSW 15 24 29.52 1000 10 16 0.00 0.00
1:53 pm 13:53 Partly Cloudy 58 14.4 28 -2.2 32 32 W 13 20 29.53 1000 10 16 0.00 0.00
2:53 pm 14:53 Mostly Sunny 58 14.4 32 0 38 38 W 22 35 29.52 1000 10 16 0.00 0.00
3:53 pm 15:53 Sunny 54 12.2 31 -0.6 42 42 W 32 52 29.52 1000 10 16 0.00 0.00
4:53 pm 16:53 Sunny 51 10.6 31 -0.6 46 46 WSW 29 46 29.54 1001 10 16 0.00 0.00
5:53 pm 17:53 Clear 43 6.1 31 -0.6 63 63 SW 13 20 29.60 1002 10 16 0.00 0.00
7:53 pm 19:53 Clear 43 6.1 33 0.6 68 68 W 25 41 29.66 1005 10 16 0.00 0.00
8:53 pm 20:53 Clear 43 6.1 32 0 65 65 W 24 39 29.68 1005 10 16 0.00 0.00
9:53 pm 21:53 Clear 38 3.3 32 0 79 79 W 14 22 29.71 1006 10 16 0.00 0.00
10:53 pm 22:53 Clear 33 0.6 29 -1.7 85 85 WSW 9 15 29.75 1007 10 16 0.00 0.00
11:53 pm 23:53 Clear 31 -0.6 29 -1.7 92 92 W 9 15 29.75 1008 10 16 0.00 0.00

Powered by AerisWeather